Weather History for Ireland West Airport Knock, Ireland

Change the Weather History Date:

Monday, April 21, 2014

  Actual Average Record
Temperature  
Mean Temperature 54 °F -  
Max Temperature 62 °F - - ()
Min Temperature 45 °F - - ()
Degree Days  
Heating Degree Days 12    
Growing Degree Days 4 (Base 50)    
Moisture  
Dew Point 42 °F    
Average Humidity 61    
Maximum Humidity 93    
Minimum Humidity 32    
Precipitation  
Precipitation 0.00 in - - ()
Sea Level Pressure  
Sea Level Pressure 29.73 in    
Wind  
Wind Speed 13 mph ()    
Max Wind Speed 21 mph    
Max Gust Speed 31 mph    
Visibility 7.2 miles    
Events Rain    
T = Trace of Precipitation, MM = Missing Value Source: Averaged Metar Reports

Daily Weather History Graph

Daily Weather History Graph

Search for Another Location

Airport:

Trip Planner

Search our weather history database for the weather conditions in past years. The results will help you decide how hot, cold, wet, or windy it might be!

Date:

Astronomy

Apr. 21, 2014 Rise Set
Actual Time 6:21 AM IST 8:48 PM IST
Civil Twilight 5:42 AM IST 9:27 PM IST
Nautical Twilight 4:52 AM IST 10:17 PM IST
Astronomical Twilight 3:52 AM IST 11:18 PM IST
Moon 2:21 AM IST (4/21) 11:19 AM IST (4/21)
Length of Visible Light 15h 44m
Length of Day
14h 26m
Waning Gibbous, 60% of the Moon is Illuminated
Apr 21
Waning Gibbous
Apr 22
Last Quarter
Apr 29
New
May 7
First Quarter
May 14
Full

Hourly Weather History & Observations

Time (IST) Temp. Windchill Dew Point Humidity Pressure Visibility Wind Dir Wind Speed Gust Speed Precip Events Conditions
12:00 AM 49 °F - 40 °F 62% 29.84 in - North 8.9 mph - -  
1:00 AM 48 °F - 40 °F 67% 29.83 in - North 8.9 mph - -  
2:00 AM 47 °F - 42 °F 79% 29.80 in - North 8.9 mph - -  
3:00 AM 47 °F - 41 °F 73% 29.77 in - North 11.2 mph - -  
4:00 AM 46 °F - 41 °F 75% 29.76 in - NNE 8.9 mph - -  
5:00 AM 46 °F - 41 °F 75% 29.74 in - NE 11.2 mph - -  
6:00 AM 48 °F - 42 °F 71% 29.73 in 12 mi ENE 15.7 mph - - Rain Light Rain
6:00 AM 48.2 °F - 41.0 °F 76% 29.71 in 6.2 mi ENE 16.1 mph - N/A   Mostly Cloudy
6:30 AM 48.2 °F - 42.8 °F 82% 29.71 in 6.2 mi East 13.8 mph - N/A   Mostly Cloudy
7:00 AM 47 °F - 43 °F 80% 29.74 in 11 mi NE 11.2 mph - -   Partly Cloudy
7:00 AM 48.2 °F - 42.8 °F 82% 29.71 in 6.2 mi NE 10.4 mph - N/A   Mostly Cloudy
7:30 AM 48.2 °F - 42.8 °F 82% 29.71 in 0.9 mi ENE 12.7 mph - N/A   Mostly Cloudy
8:00 AM 48 °F - 43 °F 78% 29.75 in 9 mi ENE 13.4 mph - -   Overcast
8:00 AM 48.2 °F - 42.8 °F 82% 29.74 in 6.2 mi ENE 13.8 mph - N/A   Mostly Cloudy
8:30 AM 46.4 °F 40.4 °F 44.6 °F 93% 29.74 in 6.2 mi East 13.8 mph - N/A   Overcast
9:00 AM 48 °F - 45 °F 85% 29.75 in 11 mi East 15.7 mph - -   Mostly Cloudy
9:00 AM 48.2 °F - 44.6 °F 87% 29.74 in 6.2 mi East 15.0 mph - N/A   Mostly Cloudy
9:30 AM 50.0 °F - 44.6 °F 82% 29.74 in 6.2 mi East 15.0 mph - N/A   Mostly Cloudy
10:00 AM 51 °F - 45 °F 74% 29.75 in 12 mi East 15.7 mph - -   Mostly Cloudy
10:00 AM 51.8 °F - 44.6 °F 76% 29.74 in 6.2 mi East 16.1 mph - N/A   Scattered Clouds
10:30 AM 51.8 °F - 44.6 °F 76% 29.74 in 6.2 mi East 16.1 mph - N/A   Scattered Clouds
11:00 AM 52 °F - 43 °F 63% 29.75 in 12 mi East 17.9 mph - -   Mostly Cloudy
11:00 AM 51.8 °F - 42.8 °F 71% 29.74 in 6.2 mi East 18.4 mph - N/A   Scattered Clouds
11:30 AM 53.6 °F - 42.8 °F 67% 29.74 in 6.2 mi East 17.3 mph - N/A   Scattered Clouds
12:00 PM 55 °F - 43 °F 55% 29.74 in 17 mi East 15.7 mph - -   Partly Cloudy
12:00 PM 55.4 °F - 42.8 °F 63% 29.71 in 6.2 mi East 16.1 mph - N/A   Scattered Clouds
12:30 PM 57.2 °F - 42.8 °F 59% 29.71 in 6.2 mi East 17.3 mph - N/A   Scattered Clouds
1:00 PM 58 °F - 41 °F 42% 29.73 in 25 mi ESE 20.1 mph - -   Mostly Cloudy
1:00 PM 57.2 °F - 41.0 °F 55% 29.71 in 6.2 mi ESE 19.6 mph 31.1 mph N/A   Scattered Clouds
1:30 PM 59.0 °F - 41.0 °F 51% 29.71 in 6.2 mi East 18.4 mph - N/A   Scattered Clouds
2:00 PM 60 °F - 42 °F 40% 29.73 in 28 mi ESE 20.1 mph - -   Mostly Cloudy
2:00 PM 60.8 °F - 42.8 °F 52% 29.71 in 6.2 mi ESE 19.6 mph - N/A   Scattered Clouds
2:30 PM 59.0 °F - 42.8 °F 55% 29.71 in 6.2 mi East 16.1 mph - N/A   Scattered Clouds
3:00 PM 59 °F - 40 °F 38% 29.73 in 28 mi ESE 20.1 mph - -   Scattered Clouds
3:00 PM 59.0 °F - 41.0 °F 51% 29.71 in 6.2 mi ESE 20.7 mph - N/A   Partly Cloudy
3:30 PM 59.0 °F - 39.2 °F 48% 29.71 in 6.2 mi ESE 18.4 mph - N/A   Partly Cloudy
4:00 PM 59 °F - 39 °F 36% 29.72 in 28 mi ESE 17.9 mph - -   Scattered Clouds
4:00 PM 59.0 °F - 39.2 °F 48% 29.71 in 6.2 mi ESE 17.3 mph 28.8 mph N/A   Partly Cloudy
4:30 PM 60.8 °F - 39.2 °F 45% 29.71 in 6.2 mi ESE 17.3 mph - N/A   Partly Cloudy
5:00 PM 61 °F - 39 °F 33% 29.71 in 28 mi ESE 17.9 mph - -   Scattered Clouds
5:00 PM 60.8 °F - 39.2 °F 45% 29.71 in 6.2 mi ESE 18.4 mph - N/A   Partly Cloudy
5:30 PM 60.8 °F - 37.4 °F 42% 29.71 in 6.2 mi ESE 18.4 mph 29.9 mph N/A   Partly Cloudy
6:00 PM 60 °F - 38 °F 32% 29.72 in 25 mi ESE 17.9 mph - -   Partly Cloudy
6:00 PM 60.8 °F - 37.4 °F 42% 29.71 in 6.2 mi ESE 18.4 mph - N/A   Partly Cloudy
6:30 PM 59.0 °F - 41.0 °F 51% 29.71 in 6.2 mi East 16.1 mph - N/A   Partly Cloudy
7:00 PM 58 °F - 41 °F 41% 29.73 in 25 mi ESE 13.4 mph - -   Scattered Clouds
7:00 PM 59.0 °F - 41.0 °F 51% 29.71 in 6.2 mi ESE 13.8 mph 25.3 mph N/A   Partly Cloudy
8:00 PM 56 °F - 40 °F 44% 29.73 in - East 8.9 mph - -  
9:00 PM 53 °F - 39 °F 48% 29.74 in - East 8.9 mph - -  
10:00 PM 51 °F - 41 °F 58% 29.75 in - East 8.9 mph - -  
11:00 PM 53 °F - 45 °F 67% 29.75 in - East 11.2 mph - -